TimePDT,TemperatureF,Dew PointF,Humidity,Sea Level PressureIn,VisibilityMPH,Wind Direction,Wind SpeedMPH,Gust SpeedMPH,PrecipitationIn,Events,Conditions,WindDirDegrees,DateUTC
12:53 AM,60.1,57.9,93,30.03,5.0,Calm,Calm,-,0.11,Rain,Light Rain,0,2013-09-06 07:53:00
1:10 AM,60.8,57.2,88,30.02,4.0,Calm,Calm,-,0.04,Rain,Rain,0,2013-09-06 08:10:00
1:30 AM,59.0,57.2,94,30.00,4.0,Calm,Calm,-,0.10,Rain,Rain,0,2013-09-06 08:30:00
1:53 AM,60.1,57.9,93,30.01,5.0,Calm,Calm,-,0.14,Rain,Rain,0,2013-09-06 08:53:00
2:07 AM,60.8,57.2,88,30.01,5.0,Calm,Calm,-,0.04,Rain,Light Rain,0,2013-09-06 09:07:00
2:53 AM,60.1,57.9,93,30.02,5.0,East,5.8,-,0.15,Rain,Rain,90,2013-09-06 09:53:00
3:17 AM,60.8,57.2,88,30.01,2.5,Calm,Calm,-,0.09,Rain,Rain,0,2013-09-06 10:17:00
3:24 AM,60.8,57.2,88,30.01,5.0,Calm,Calm,-,0.09,Rain,Light Rain,0,2013-09-06 10:24:00
3:53 AM,60.1,57.9,93,30.01,3.0,Calm,Calm,-,0.18,Rain,Rain,0,2013-09-06 10:53:00
4:13 AM,60.8,59.0,94,30.01,4.0,Calm,Calm,-,0.07,Rain,Rain,0,2013-09-06 11:13:00
4:42 AM,60.8,59.0,94,30.01,6.0,Calm,Calm,-,0.14,Rain,Light Rain,0,2013-09-06 11:42:00
4:53 AM,60.1,59.0,96,30.01,6.0,Calm,Calm,-,0.15,Rain,Light Rain,0,2013-09-06 11:53:00
5:53 AM,61.0,59.0,93,30.01,6.0,South,5.8,-,0.10,Rain,Light Rain,190,2013-09-06 12:53:00
6:53 AM,61.0,59.0,93,30.02,6.0,ESE,4.6,-,0.09,Rain,Light Rain,120,2013-09-06 13:53:00
7:53 AM,61.0,59.0,93,30.05,10.0,South,4.6,-,0.03,Rain,Light Rain,170,2013-09-06 14:53:00
8:53 AM,62.1,59.0,90,30.06,9.0,SSE,3.5,-,0.05,Rain,Light Rain,150,2013-09-06 15:53:00
9:22 AM,62.6,59.0,88,30.07,10.0,Calm,Calm,-,0.01,Rain,Light Rain,0,2013-09-06 16:22:00
9:49 AM,62.6,59.0,88,30.08,10.0,Calm,Calm,-,0.01,,Unknown,0,2013-09-06 16:49:00
9:53 AM,62.1,59.0,90,30.08,10.0,South,3.5,-,0.01,,Unknown,190,2013-09-06 16:53:00
10:19 AM,62.6,59.0,88,30.08,10.0,Calm,Calm,-,N/A,,Overcast,0,2013-09-06 17:19:00
10:53 AM,63.0,59.0,87,30.09,10.0,North,-9999.0,-,N/A,,Unknown,0,2013-09-06 17:53:00
11:53 AM,64.0,60.1,87,30.10,10.0,South,4.6,-,N/A,,Overcast,180,2013-09-06 18:53:00
12:53 PM,66.0,59.0,78,30.10,10.0,Variable,4.6,-,N/A,,Overcast,0,2013-09-06 19:53:00
1:53 PM,66.9,59.0,76,30.11,10.0,South,4.6,-,N/A,,Unknown,190,2013-09-06 20:53:00
2:53 PM,68.0,59.0,73,30.10,10.0,SW,6.9,-,N/A,,Unknown,220,2013-09-06 21:53:00
3:53 PM,69.1,57.9,68,30.09,10.0,South,3.5,-,N/A,,Unknown,180,2013-09-06 22:53:00
4:53 PM,69.1,57.9,68,30.10,10.0,Variable,3.5,-,N/A,,Unknown,0,2013-09-06 23:53:00
5:53 PM,69.1,57.9,68,30.10,10.0,SSE,4.6,-,N/A,,Unknown,160,2013-09-07 00:53:00
6:53 PM,66.9,59.0,76,30.10,10.0,Calm,Calm,-,N/A,,Unknown,0,2013-09-07 01:53:00
7:53 PM,64.9,57.9,78,30.10,10.0,Calm,Calm,-,N/A,,Unknown,0,2013-09-07 02:53:00
8:53 PM,64.9,57.9,78,30.12,10.0,Calm,Calm,-,N/A,,Unknown,0,2013-09-07 03:53:00
9:53 PM,63.0,59.0,87,30.12,10.0,Calm,Calm,-,N/A,,Overcast,0,2013-09-07 04:53:00
10:53 PM,61.0,59.0,93,30.12,10.0,Calm,Calm,-,N/A,,Overcast,0,2013-09-07 05:53:00
11:14 PM,60.8,59.0,94,30.12,10.0,Calm,Calm,-,N/A,,Overcast,0,2013-09-07 06:14:00
11:53 PM,61.0,59.0,93,30.11,10.0,Calm,Calm,-,N/A,,Overcast,0,2013-09-07 06:53:00